Location: *
(46.4000°N, 12.6667°E)
Time: 03:42:06
(UTC+00:00)

Envisat - Pass Details

Date: 08 December 2021
Orbit: 764 x 766 km, 98.2° (Epoch: 16 January)

Event Time Altitude Azimuth Distance (km) Brightness Sun altitude
Rises 15:59:28 0° 191° (S) 3,219 6.8 -6.4°
Reaches altitude 10° 16:01:59 10° 201° (SSW) 2,298 6.2 -6.7°
Maximum altitude 16:06:31 33° 264° (W) 1,277 5.0 -7.4°
Drops below altitude 10° 16:11:06 10° 328° (NNW) 2,313 5.6 -8.2°
Sets 16:13:39 0° 339° (NNW) 3,244 6.2 -8.6°
